TimeEST,TemperatureF,Dew PointF,Humidity,Sea Level PressureIn,VisibilityMPH,Wind Direction,Wind SpeedMPH,Gust SpeedMPH,PrecipitationIn,Events,Conditions,WindDirDegrees,DateUTC
12:53 AM,27.0,17.1,66,30.48,10.0,Calm,Calm,-,N/A,,Clear,0,2014-01-09 05:53:00
1:53 AM,26.1,17.1,69,30.46,10.0,Calm,Calm,-,N/A,,Scattered Clouds,0,2014-01-09 06:53:00
2:53 AM,27.0,16.0,63,30.46,10.0,ENE,4.6,-,N/A,,Scattered Clouds,60,2014-01-09 07:53:00
3:08 AM,23.0,19.4,86,30.44,10.0,Calm,Calm,-,N/A,,Mostly Cloudy,0,2014-01-09 08:08:00
3:18 AM,24.8,19.4,80,30.44,10.0,Calm,Calm,-,N/A,,Scattered Clouds,0,2014-01-09 08:18:00
3:53 AM,26.1,17.1,69,30.46,10.0,Calm,Calm,-,N/A,,Clear,0,2014-01-09 08:53:00
4:53 AM,24.1,16.0,71,30.46,10.0,Calm,Calm,-,N/A,,Clear,0,2014-01-09 09:53:00
5:53 AM,24.1,18.0,77,30.46,10.0,Calm,Calm,-,N/A,,Scattered Clouds,0,2014-01-09 10:53:00
6:53 AM,28.0,18.0,66,30.48,10.0,NE,3.5,-,N/A,,Overcast,50,2014-01-09 11:53:00
7:53 AM,30.9,15.1,52,30.49,10.0,NE,4.6,-,N/A,,Overcast,40,2014-01-09 12:53:00
8:53 AM,34.0,15.1,46,30.50,10.0,NNE,3.5,-,N/A,,Overcast,20,2014-01-09 13:53:00
9:53 AM,37.0,15.1,41,30.52,10.0,NNE,3.5,-,N/A,,Overcast,30,2014-01-09 14:53:00
10:51 AM,41.0,15.8,36,30.49,10.0,Variable,4.6,-,N/A,,Overcast,0,2014-01-09 15:51:00
10:53 AM,41.0,16.0,36,30.52,10.0,Calm,Calm,-,N/A,,Overcast,0,2014-01-09 15:53:00
11:53 AM,44.1,28.0,53,30.47,10.0,East,10.4,-,N/A,,Overcast,80,2014-01-09 16:53:00
12:40 PM,46.4,28.4,50,30.42,10.0,ENE,5.8,-,N/A,,Overcast,70,2014-01-09 17:40:00
12:53 PM,46.9,30.0,52,30.42,10.0,East,8.1,-,N/A,,Overcast,90,2014-01-09 17:53:00
1:53 PM,48.0,30.0,50,30.39,10.0,East,5.8,-,N/A,,Overcast,90,2014-01-09 18:53:00
2:00 PM,48.2,30.2,50,30.37,10.0,ENE,8.1,-,N/A,,Overcast,60,2014-01-09 19:00:00
2:53 PM,48.0,30.0,50,30.39,10.0,ENE,5.8,-,N/A,,Overcast,70,2014-01-09 19:53:00
3:53 PM,48.0,35.1,61,30.40,10.0,East,8.1,-,N/A,,Overcast,90,2014-01-09 20:53:00
4:53 PM,46.9,37.9,71,30.40,8.0,East,8.1,-,0.00,Rain,Light Rain,80,2014-01-09 21:53:00
6:53 PM,44.1,39.0,82,30.41,10.0,Variable,4.6,-,N/A,,Overcast,0,2014-01-09 23:53:00
7:11 PM,42.8,39.2,87,30.39,8.0,ENE,6.9,-,0.00,Rain,Light Rain,60,2014-01-10 00:11:00
7:53 PM,43.0,37.9,82,30.41,10.0,ENE,4.6,-,0.00,Rain,Light Rain,60,2014-01-10 00:53:00
8:53 PM,41.0,37.0,86,30.42,10.0,NNE,8.1,-,0.01,Rain,Light Rain,30,2014-01-10 01:53:00
9:53 PM,41.0,36.0,82,30.42,7.0,NE,4.6,-,0.01,Rain,Light Rain,40,2014-01-10 02:53:00
10:53 PM,39.9,36.0,86,30.40,10.0,NE,5.8,-,0.01,,Overcast,40,2014-01-10 03:53:00
11:53 PM,39.9,37.0,89,30.38,10.0,NNE,4.6,-,N/A,,Overcast,20,2014-01-10 04:53:00